Location: Keeble Observatory
(37.7625°N, 77.4755°W)
Time: 18:10:31
(UTC-04:00)

Daily predictions for brighter satellites

Satellite Brightness Start Highest point End
(mag) Time Altitude Azimuth Time Altitude Azimuth Time Altitude Azimuth
IDEFIX/ARIANE 42P 3.4 19:12:36 10° S 19:17:44 59° W 19:22:56 10° NNW
Meteor 1-24 Rocket 3.7 19:13:05 10° N 19:18:39 63° ENE 19:24:00 10° SSE
GPS 2-04 Rocket1 3.9 19:17:30 10° SSW 19:20:15 22° SSE 19:23:05 10° ESE
Cosmos 1624 Rocket 4.0 19:17:04 10° NNW 19:22:18 86° ENE 19:27:29 10° SSE
CZ-2C R/B 3.9 19:19:56 10° S 19:24:38 43° W 19:29:15 10° NNW
NOAA 12 4.4 19:20:41 10° SE 19:25:39 45° ENE 19:30:40 10° N
Meteor 2-5 Rocket 4.4 19:20:42 10° NNW 19:26:14 61° W 19:31:40 10° S
Aureole 2 Rocket 3.3 19:24:06 10° SSW 19:28:29 74° WNW 19:32:47 10° NNE
SL-8 R/B 4.2 19:24:41 10° SSW 19:29:10 41° SE 19:33:39 10° ENE
ATLAS CENTAUR R/B 3.3 19:27:00 10° SW 19:31:19 81° SE 19:44:48 10° NE
Cosmos 2333 Rocket 4.4 19:29:47 10° WSW 19:34:40 28° WNW 19:39:34 10° N
SAR-Lupe-1 4.1 19:31:45 10° SSE 19:35:14 58° ENE 19:38:45 10° N
SeaSat 1 4.2 19:35:13 10° E 19:35:45 11° ESE 19:36:44 10° ESE
SJ-6B 2.9 19:32:48 10° SSE 19:36:42 59° ENE 19:40:43 10° N
Okean 3 Rocket 3.9 19:32:38 10° N 19:37:12 78° W 19:41:43 10° S
In-Cosmos 22 4.5 19:34:07 10° N 19:39:43 49° ENE 19:45:14 10° SSE
Helios 1A 3.8 19:36:21 10° SE 19:40:01 30° ENE 19:43:43 10° N
FREGAT/IRIS 2.9 19:37:14 10° SSE 19:40:11 45° ENE 19:43:10 10° N
Meteor 1-29 4.0 19:38:26 10° NE 19:41:24 25° E 19:44:21 10° SSE
Resurs 01 Rocket 2.2 19:37:39 10° SE 19:41:44 37° ENE 19:45:51 10° N
NOSS 3-2 (A) 3.9 19:39:20 10° SW 19:45:19 65° NW 19:51:52 10° NNE
Cosmos 1674 4.3 19:43:09 10° NE 19:45:36 16° ENE 19:46:24 15° E
Cosmos 1758 3.4 19:45:16 10° S 19:49:14 53° E 19:53:15 10° NNE
ASTRO E2 3.9 19:46:16 10° WSW 19:49:53 32° S 19:52:46 14° SE
Cosmos 1484 Rocket 4.2 19:47:53 10° S 19:51:31 42° W 19:55:14 10° NNW
Cosmos 1452 Rocket 3.5 19:46:37 10° N 19:51:50 60° ENE 19:57:00 10° SSE
ATLAS 5 CENTAUR R/B 2.1 19:50:19 10° SW 19:55:02 71° NW 20:00:09 10° NNE
Abrixas 2.4 19:52:52 10° SW 19:55:51 70° SE 19:57:41 21° ENE
Timation 1 Rocket 4.4 19:50:25 10° NNW 19:56:24 85° WSW 20:02:23 10° SSE
Nadezhda 4 Rocket 4.2 19:54:57 10° N 20:00:58 46° ENE 20:06:53 10° SSE
Cosmos 1346 3.7 19:59:20 10° N 20:02:04 33° ENE 20:02:37 30° ESE
Meteor 2-12 Rocket 4.4 19:57:10 10° S 20:03:16 68° E 20:09:22 10° NNE
Cosmos 468 4.4 20:02:00 10° SSW 20:07:14 78° ESE 20:12:29 10° NNE
Meteor 1-21 Rocket 4.1 20:03:05 10° N 20:08:37 65° E 20:14:05 10° SSE
Cosmos 1092 Rocket 4.4 20:03:09 10° N 20:08:53 38° ENE 20:13:46 14° SE
GP-B 4.5 20:05:52 10° NE 20:08:19 20° ENE 20:08:19 20° ENE
ASTEX 1 3.7 20:07:57 10° NNE 20:12:36 42° E 20:17:12 10° SSE
Cosmos 1420 Rocket 4.2 20:07:48 10° N 20:12:59 51° ENE 20:16:34 19° SE
Atlas Centaur 2 4.3 20:06:51 10° W 20:14:06 31° SSW 20:20:44 11° SE
SL-16 R/B 4.0 20:11:01 10° SW 20:16:07 33° WNW 20:21:15 10° N
CENTAUR R/B 2.7 20:11:11 10° S 20:16:47 45° ESE 20:22:59 10° NE
Cosmos 1544 3.0 20:14:45 10° S 20:18:29 84° E 20:22:15 10° N
Helios 1B rocket 2.5 20:14:38 10° N 20:18:45 78° WNW 20:22:51 10° SSW
METEOR-M 4.3 20:14:18 10° S 20:19:38 76° WSW 20:25:00 10° NNW
Cosmos 1634 Rocket 4.3 20:16:37 10° SSE 20:22:23 41° E 20:28:07 10° NNE
Cosmos 1766 Rocket 4.2 20:18:27 10° NNW 20:22:44 56° W 20:26:58 10° S
CZ-2D R/B 3.5 20:24:44 43° E 20:25:05 44° ENE 20:28:49 10° N
Spot 2 Rocket 3.7 20:21:39 10° S 20:26:41 71° WSW 20:31:43 10° NNW
OAO 3 Rocket 3.3 20:23:49 10° W 20:28:31 60° S 20:30:04 39° SE
Cosmos 1048 Rocket 3.9 20:24:48 10° SSW 20:30:06 82° ESE 20:35:23 10° NNE
Cosmos 1269 Rocket 4.0 20:25:22 10° SSW 20:30:39 84° WNW 20:35:58 10° NNE
FENGYUN 3A 3.5 20:28:51 15° SSE 20:33:18 72° ENE 20:38:40 10° N
Cosmos-2242 4.0 20:29:38 10° SSW 20:33:51 50° W 20:38:08 10° N
H-2A R/B 2.6 20:39:09 67° E 20:39:13 68° ENE 20:43:05 10° N
Gbstr 26 Del rocket 3.1 20:37:09 10° SW 20:41:31 73° SE 20:42:57 46° ENE
Cosmos 1953 4.3 20:39:02 10° SW 20:42:34 30° WNW 20:46:08 10° NNW
Cosmos 1174 3.9 20:39:03 10° SSW 20:44:02 68° ESE 20:44:15 67° E
ISS -2.7 20:41:10 10° WSW 20:44:06 56° WNW 20:44:06 56° WNW
Cosmos 2151 4.3 20:40:30 10° N 20:42:41 26° NNE 20:42:41 26° NNE
ALOS 2.3 20:42:16 22° S 20:45:17 81° W 20:49:58 10° NNW
BREEZE-M DEB (TANK) 4.1 20:38:40 10° WNW 20:50:16 44° N 20:52:04 32° NE
Cosmos 1842 Rocket 3.8 20:49:17 10° SSW 20:53:34 65° W 20:57:54 10° N
Cosmos 158 Rocket 3.6 20:50:23 10° SSW 20:55:16 83° ESE 21:00:10 10° NNE
Cosmos 1500 Rocket 3.7 20:51:30 10° N 20:55:56 74° W 20:57:01 50° SSW
USA 215 3.8 20:50:51 10° NE 20:57:13 57° NW 21:03:33 10° WSW
Cosmos 1943 3.1 20:52:32 10° SSW 20:58:11 88° ESE 21:03:49 10° NNE
Cosmos 1943 Rocket 3.5 20:54:39 10° N 20:58:07 25° NE 20:58:07 25° NE
Cosmos 2369 Rocket 2.1 20:53:52 10° NNW 20:59:30 64° ENE 20:59:46 63° E
GPS 2-04 Rocket1 4.0 20:56:13 10° WSW 20:58:12 30° SW 20:58:12 30° SW
Cosmos 1470 3.8 21:00:55 10° SSW 21:04:38 44° W 21:08:22 10° N
Cosmos 1733 4.4 21:08:47 40° NW 21:08:47 40° NW 21:11:39 10° N
Cosmos 1627 Rocket 4.3 21:04:14 10° N 21:10:28 77° E 21:11:14 67° SE
ERS-1 Rocket 4.1 21:15:22 33° NNE 21:15:22 33° NNE 21:18:15 10° N
SeaSat 1 3.0 21:15:13 47° SSW 21:15:13 47° SSW 21:18:41 10° SSW
Resurs 01 Rocket 4.3 21:15:16 10° SW 21:18:19 18° W 21:21:22 10° NW
Cosmos 839 Rocket 4.2 21:37:07 10° NNW 21:44:15 72° WSW 21:44:15 72° WSW
Cosmos 2279 Rocket 4.5 21:46:27 53° NNW 21:46:27 53° NNW 21:51:09 10° N
CENTAUR R/B 4.0 22:02:04 10° WSW 22:07:34 33° NW 22:13:41 10° NNE
